Volver al catálogo

STARLINK-37258

ActivoComunicacionesVLEO
NORAD 68951·PAYLOAD·🇺🇸 United States

Lanzado May 1, 2026 desde Cape Canaveral Space Force Station

Loading…

Próximos Pases (próximas 24 horas)

TLE

ActualizadoSource: CelesTrak SupGP

Época: Sep 15, 2026, 03:35 UTC

1 68951C 26099A   26258.14979167 -.00011268  00000+0 -33294-3 0  2583
2 68951  53.1573 101.0675 0001168  85.9918 117.0751 15.34394898    18

Sigue STARLINK-37258 en tiempo real con AllMySat

Download on the App Store